Погода в Пуэрто-Варасе

Чили     41°19′12″S   72°59′05″W
темп.,
°C
ветер,
м/с
пор.,
м/с
влажн.,
%
обл.,
%
осадки,
мм/ч
давл.,
гПа
погр.,
м
17 октября, вс
вс1700:00+7з1298100 0.1 102769
03:00+7зюз129896 0.3 102784
06:00+6юз239938 0.0 102792
09:00+7ююз249898 0.0 1028209
12:00+11ю248279 0.1 1028883
15:00+14ю35543 0.1 10271107
18:00+13ю47530 0.0 1026738
21:00+7ююз39802 0.0 1028256
18 октября, пн
пн1800:00+5юз259722 0.0 1027106
03:00+5юз259837 0.0 1026119
06:00+4ююз259745 0.0 1025122
09:00+8ююз26866 0.0 1025359
12:00+14ю365386 0.0 1024730
15:00+16ю59515 0.0 1022661
18:00+15ю410574 0.0 1021579
21:00+10ююз39860 0.0 1022232
19 октября, вт
вт1900:00+8ююз3109718 0.0 1022251
03:00+8ююз399949 0.0 1020266
06:00+9ююз399877 0.0 1019332
09:00+11ююз358956 0.0 1019338
12:00+17ю36610 0.0 1017611
15:00+18ю46550 0.0 1014593
18:00+16ю36644 0.0 1013382
21:00+10ююз38923 0.0 1014166
20 октября, ср
ср2000:00+9юз249815 0.0 101592
03:00+8юз229821 0.0 101549
06:00+8юз119855 0.0 101634
09:00+11юв0195100 0.1 1018156
12:00+14в0278100 0.1 1018650
15:00+15св2267100 0.2 1018470
18:00+14юз4775100 0.1 1020627
21:00+9ююз3798100 0.5 1023473
21 октября, чт
чт2100:00+8юз279798 0.1 1023313
03:00+8ююз389385 0.1 1023292
06:00+7ю389272 0.1 1024406
09:00+8ююз37867 0.2 1025571
12:00+12ю45475 0.0 10251519
15:00+13ююв46434 0.0 10241312
18:00+13ю46504 0.0 10241183
21:00+8ююз38788 0.0 1025395